contact:dominique.lefevre@mio.osupytheas.fr, maurice.libes@osupytheas.fr, didier.mallarino@osupytheas.fr
Project:EMSO http://www.emso-fr.org/EMSO-France
Depth: 2436.0 m
Title:EMSO Ligure Ouest : Data MII capteur MICROCAT
DateTime_Computer,Latitude,Longitude,Temperature,Conductivity,Pressure,DateTime_Instrument
DateTime_Computer,Latitude,Longitude,degC,S m-1,dbar,DateTime_Instrument
2019-12-18T00:01:53Z,42.805,6.029,13.2976,4.59979,2470.04,2019-12-18T02:02:23Z
2019-12-18T00:04:56Z,42.805,6.029,13.2970,4.59996,2470.017,2019-12-18T02:05:26Z
2019-12-18T00:07:59Z,42.805,6.029,13.2976,4.59982,2470.007,2019-12-18T02:08:29Z
2019-12-18T00:11:02Z,42.805,6.029,13.2976,4.59984,2470.007,2019-12-18T02:11:32Z
2019-12-18T00:14:05Z,42.805,6.029,13.2971,4.59986,2470.017,2019-12-18T02:14:36Z
2019-12-18T00:17:08Z,42.805,6.029,13.2979,4.59987,2470.03,2019-12-18T02:17:39Z
2019-12-18T00:20:12Z,42.805,6.029,13.2970,4.59988,2470.017,2019-12-18T02:20:42Z
2019-12-18T00:23:15Z,42.805,6.029,13.2978,4.59995,2470.03,2019-12-18T02:23:45Z
2019-12-18T00:26:18Z,42.805,6.029,13.2978,4.59980,2470.017,2019-12-18T02:26:48Z
2019-12-18T00:29:21Z,42.805,6.029,13.2974,4.59984,2470.017,2019-12-18T02:29:51Z
2019-12-18T00:32:24Z,42.805,6.029,13.2973,4.59980,2469.993,2019-12-18T02:32:55Z
2019-12-18T00:35:28Z,42.805,6.029,13.2978,4.59979,2470.04,2019-12-18T02:35:58Z
2019-12-18T00:38:31Z,42.805,6.029,13.2969,4.59981,2470.007,2019-12-18T02:39:01Z
2019-12-18T00:41:34Z,42.805,6.029,13.2974,4.59985,2469.993,2019-12-18T02:42:04Z
2019-12-18T00:44:37Z,42.805,6.029,13.2981,4.59993,2469.97,2019-12-18T02:45:08Z
2019-12-18T00:47:40Z,42.805,6.029,13.2979,4.59986,2470.017,2019-12-18T02:48:11Z
2019-12-18T00:50:44Z,42.805,6.029,13.2976,4.59983,2470.03,2019-12-18T02:51:14Z
2019-12-18T00:53:47Z,42.805,6.029,13.2979,4.59981,2470.03,2019-12-18T02:54:17Z
2019-12-18T00:56:50Z,42.805,6.029,13.2978,4.59982,2469.993,2019-12-18T02:57:20Z
2019-12-18T00:59:53Z,42.805,6.029,13.2979,4.59986,2470.03,2019-12-18T03:00:24Z
2019-12-18T01:02:56Z,42.805,6.029,13.2974,4.59981,2470.03,2019-12-18T03:03:27Z
2019-12-18T01:06:00Z,42.805,6.029,13.2976,4.59978,2469.993,2019-12-18T03:06:30Z
2019-12-18T01:09:03Z,42.805,6.029,13.2974,4.59983,2469.993,2019-12-18T03:09:33Z
2019-12-18T01:12:06Z,42.805,6.029,13.2975,4.59979,2470.03,2019-12-18T03:12:36Z
2019-12-18T01:15:09Z,42.805,6.029,13.2978,4.59988,2470.03,2019-12-18T03:15:39Z
2019-12-18T01:18:12Z,42.805,6.029,13.2979,4.59996,2469.993,2019-12-18T03:18:43Z
2019-12-18T01:21:16Z,42.805,6.029,13.2979,4.59986,2470.017,2019-12-18T03:21:46Z
2019-12-18T01:24:19Z,42.805,6.029,13.2979,4.59985,2469.993,2019-12-18T03:24:49Z
2019-12-18T01:27:22Z,42.805,6.029,13.2974,4.59978,2470.017,2019-12-18T03:27:52Z
2019-12-18T01:30:25Z,42.805,6.029,13.2972,4.59978,2470.007,2019-12-18T03:30:55Z
2019-12-18T01:33:29Z,42.805,6.029,13.2972,4.59977,2469.97,2019-12-18T03:33:59Z
2019-12-18T01:36:32Z,42.805,6.029,13.2976,4.59997,2469.993,2019-12-18T03:37:02Z
2019-12-18T01:39:35Z,42.805,6.029,13.2979,4.59980,2469.993,2019-12-18T03:40:05Z
2019-12-18T01:42:38Z,42.805,6.029,13.2976,4.59978,2470.063,2019-12-18T03:43:09Z
2019-12-18T01:45:41Z,42.805,6.029,13.2976,4.59981,2470.03,2019-12-18T03:46:12Z
2019-12-18T01:48:45Z,42.805,6.029,13.2971,4.59978,2469.97,2019-12-18T03:49:15Z
2019-12-18T01:51:48Z,42.805,6.029,13.2979,4.59979,2469.993,2019-12-18T03:52:18Z
2019-12-18T01:54:51Z,42.805,6.029,13.2976,4.59978,2469.993,2019-12-18T03:55:21Z
2019-12-18T01:57:54Z,42.805,6.029,13.2973,4.59980,2470.017,2019-12-18T03:58:25Z
2019-12-18T02:00:58Z,42.805,6.029,13.2971,4.59978,2469.993,2019-12-18T04:01:28Z
2019-12-18T02:04:01Z,42.805,6.029,13.2973,4.59976,2470.017,2019-12-18T04:04:31Z
2019-12-18T02:07:04Z,42.805,6.029,13.2972,4.59978,2470.017,2019-12-18T04:07:34Z
2019-12-18T02:10:07Z,42.805,6.029,13.2977,4.59978,2470.017,2019-12-18T04:10:37Z
2019-12-18T02:13:10Z,42.805,6.029,13.2975,4.59984,2469.993,2019-12-18T04:13:41Z
2019-12-18T02:16:14Z,42.805,6.029,13.2976,4.59980,2469.97,2019-12-18T04:16:44Z
2019-12-18T02:19:17Z,42.805,6.029,13.2976,4.59981,2470.017,2019-12-18T04:19:47Z
2019-12-18T02:22:20Z,42.805,6.029,13.2971,4.59978,2470.007,2019-12-18T04:22:50Z
2019-12-18T02:25:23Z,42.805,6.029,13.2976,4.59981,2469.97,2019-12-18T04:25:53Z
2019-12-18T02:28:26Z,42.805,6.029,13.2979,4.59980,2469.97,2019-12-18T04:28:57Z
2019-12-18T02:31:29Z,42.805,6.029,13.2979,4.59979,2469.97,2019-12-18T04:32:00Z
2019-12-18T02:34:33Z,42.805,6.029,13.2980,4.59986,2469.993,2019-12-18T04:35:03Z
2019-12-18T02:37:36Z,42.805,6.029,13.2979,4.59983,2469.984,2019-12-18T04:38:06Z
2019-12-18T02:40:39Z,42.805,6.029,13.2977,4.59981,2469.97,2019-12-18T04:41:09Z
2019-12-18T02:43:42Z,42.805,6.029,13.2976,4.59981,2469.947,2019-12-18T04:44:12Z
2019-12-18T02:46:46Z,42.805,6.029,13.2973,4.59979,2469.947,2019-12-18T04:47:16Z
2019-12-18T02:49:49Z,42.805,6.029,13.2974,4.59978,2469.947,2019-12-18T04:50:19Z
2019-12-18T02:52:52Z,42.805,6.029,13.2973,4.59976,2469.984,2019-12-18T04:53:22Z
2019-12-18T02:55:55Z,42.805,6.029,13.2974,4.59978,2469.984,2019-12-18T04:56:25Z
2019-12-18T02:58:58Z,42.805,6.029,13.2975,4.59978,2469.97,2019-12-18T04:59:29Z
2019-12-18T03:02:02Z,42.805,6.029,13.2968,4.59974,2469.947,2019-12-18T05:02:32Z
2019-12-18T03:05:05Z,42.805,6.029,13.2974,4.59986,2469.97,2019-12-18T05:05:35Z
2019-12-18T03:08:08Z,42.805,6.029,13.2968,4.59973,2470.007,2019-12-18T05:08:38Z
2019-12-18T03:11:11Z,42.805,6.029,13.2976,4.59976,2470.007,2019-12-18T05:11:42Z
2019-12-18T03:14:14Z,42.805,6.029,13.2970,4.59980,2469.947,2019-12-18T05:14:45Z
2019-12-18T03:17:18Z,42.805,6.029,13.2972,4.59977,2469.984,2019-12-18T05:17:48Z
2019-12-18T03:20:21Z,42.805,6.029,13.2973,4.59976,2469.97,2019-12-18T05:20:51Z
2019-12-18T03:23:24Z,42.805,6.029,13.2970,4.59975,2469.984,2019-12-18T05:23:54Z
2019-12-18T03:26:27Z,42.805,6.029,13.2968,4.59976,2469.984,2019-12-18T05:26:58Z
2019-12-18T03:29:31Z,42.805,6.029,13.2972,4.59976,2469.97,2019-12-18T05:30:01Z
2019-12-18T03:32:34Z,42.805,6.029,13.2974,4.59986,2469.923,2019-12-18T05:33:04Z
2019-12-18T03:35:37Z,42.805,6.029,13.2967,4.59971,2469.923,2019-12-18T05:36:07Z
2019-12-18T03:38:40Z,42.805,6.029,13.2967,4.59971,2469.97,2019-12-18T05:39:11Z
2019-12-18T03:41:43Z,42.805,6.029,13.2967,4.59970,2469.984,2019-12-18T05:42:14Z
2019-12-18T03:44:47Z,42.805,6.029,13.2976,4.59977,2469.96,2019-12-18T05:45:17Z
2019-12-18T03:47:50Z,42.805,6.029,13.2969,4.59978,2470.007,2019-12-18T05:48:20Z
2019-12-18T03:50:53Z,42.805,6.029,13.2968,4.59972,2469.947,2019-12-18T05:51:23Z
2019-12-18T03:53:56Z,42.805,6.029,13.2967,4.59974,2469.97,2019-12-18T05:54:26Z
2019-12-18T03:56:59Z,42.805,6.029,13.2970,4.59971,2469.923,2019-12-18T05:57:30Z
2019-12-18T04:00:03Z,42.805,6.029,13.2971,4.59975,2469.96,2019-12-18T06:00:33Z
2019-12-18T04:03:06Z,42.805,6.029,13.2974,4.59981,2469.96,2019-12-18T06:03:36Z
2019-12-18T04:06:09Z,42.805,6.029,13.2967,4.59971,2469.923,2019-12-18T06:06:39Z
2019-12-18T04:09:12Z,42.805,6.029,13.2972,4.59973,2469.947,2019-12-18T06:09:42Z
2019-12-18T04:12:15Z,42.805,6.029,13.2967,4.59968,2469.947,2019-12-18T06:12:46Z
2019-12-18T04:15:18Z,42.805,6.029,13.2968,4.59976,2469.97,2019-12-18T06:15:49Z
2019-12-18T04:18:22Z,42.805,6.029,13.2963,4.59972,2469.923,2019-12-18T06:18:52Z
2019-12-18T04:21:25Z,42.805,6.029,13.2964,4.59969,2469.937,2019-12-18T06:21:55Z
2019-12-18T04:24:28Z,42.805,6.029,13.2965,4.59973,2469.923,2019-12-18T06:24:58Z
2019-12-18T04:27:31Z,42.805,6.029,13.2969,4.59973,2469.923,2019-12-18T06:28:02Z
2019-12-18T04:30:35Z,42.805,6.029,13.2968,4.59966,2469.947,2019-12-18T06:31:05Z
2019-12-18T04:33:38Z,42.805,6.029,13.2964,4.59967,2469.923,2019-12-18T06:34:08Z
2019-12-18T04:36:41Z,42.805,6.029,13.2961,4.59966,2469.923,2019-12-18T06:37:11Z
2019-12-18T04:39:44Z,42.805,6.029,13.2969,4.59973,2469.937,2019-12-18T06:40:14Z
2019-12-18T04:42:47Z,42.805,6.029,13.2970,4.59968,2469.923,2019-12-18T06:43:18Z
2019-12-18T04:45:51Z,42.805,6.029,13.2971,4.59974,2469.923,2019-12-18T06:46:21Z
2019-12-18T04:48:54Z,42.805,6.029,13.2966,4.59972,2469.923,2019-12-18T06:49:24Z
2019-12-18T04:51:57Z,42.805,6.029,13.2967,4.59968,2469.97,2019-12-18T06:52:27Z
2019-12-18T04:55:00Z,42.805,6.029,13.2964,4.59969,2469.96,2019-12-18T06:55:31Z
2019-12-18T04:58:03Z,42.805,6.029,13.2968,4.59969,2469.923,2019-12-18T06:58:34Z
2019-12-18T05:01:07Z,42.805,6.029,13.2967,4.59978,2469.97,2019-12-18T07:01:37Z
2019-12-18T05:04:10Z,42.805,6.029,13.2962,4.59968,2469.923,2019-12-18T07:04:40Z
2019-12-18T05:07:13Z,42.805,6.029,13.2964,4.59970,2469.937,2019-12-18T07:07:43Z
2019-12-18T05:10:16Z,42.805,6.029,13.2967,4.59971,2469.923,2019-12-18T07:10:47Z
2019-12-18T05:13:19Z,42.805,6.029,13.2964,4.59979,2469.9,2019-12-18T07:13:50Z
2019-12-18T05:16:23Z,42.805,6.029,13.2967,4.59975,2469.9,2019-12-18T07:16:53Z
2019-12-18T05:19:26Z,42.805,6.029,13.2969,4.59981,2469.923,2019-12-18T07:19:56Z
2019-12-18T05:22:29Z,42.805,6.029,13.2964,4.59971,2469.96,2019-12-18T07:22:59Z
2019-12-18T05:25:32Z,42.805,6.029,13.2969,4.59974,2469.96,2019-12-18T07:26:02Z
2019-12-18T05:28:35Z,42.805,6.029,13.2964,4.59969,2469.923,2019-12-18T07:29:06Z
2019-12-18T05:31:38Z,42.805,6.029,13.2968,4.59978,2469.9,2019-12-18T07:32:09Z
2019-12-18T05:34:42Z,42.805,6.029,13.2971,4.59972,2469.97,2019-12-18T07:35:12Z
2019-12-18T05:37:45Z,42.805,6.029,13.2967,4.59973,2469.914,2019-12-18T07:38:15Z
2019-12-18T05:40:48Z,42.805,6.029,13.2967,4.59970,2469.956,2019-12-18T07:41:18Z
2019-12-18T05:43:51Z,42.805,6.029,13.2967,4.59974,2469.923,2019-12-18T07:44:22Z
2019-12-18T05:46:54Z,42.805,6.029,13.2961,4.59971,2469.937,2019-12-18T07:47:25Z
2019-12-18T05:49:58Z,42.805,6.029,13.2967,4.59969,2469.9,2019-12-18T07:50:28Z
2019-12-18T05:53:01Z,42.805,6.029,13.2964,4.59966,2469.937,2019-12-18T07:53:31Z
2019-12-18T05:56:04Z,42.805,6.029,13.2965,4.59968,2469.937,2019-12-18T07:56:34Z
2019-12-18T05:59:07Z,42.805,6.029,13.2967,4.59966,2469.947,2019-12-18T07:59:38Z
2019-12-18T06:02:11Z,42.805,6.029,13.2968,4.59972,2469.876,2019-12-18T08:02:41Z
2019-12-18T06:05:14Z,42.805,6.029,13.2971,4.59973,2469.937,2019-12-18T08:05:44Z
2019-12-18T06:08:17Z,42.805,6.029,13.2967,4.59967,2469.937,2019-12-18T08:08:47Z
2019-12-18T06:11:20Z,42.805,6.029,13.2966,4.59966,2469.923,2019-12-18T08:11:51Z
2019-12-18T06:14:23Z,42.805,6.029,13.2972,4.59972,2469.947,2019-12-18T08:14:54Z
2019-12-18T06:17:27Z,42.805,6.029,13.2965,4.59969,2469.923,2019-12-18T08:17:57Z
2019-12-18T06:20:30Z,42.805,6.029,13.2970,4.59969,2469.947,2019-12-18T08:21:00Z
2019-12-18T06:23:33Z,42.805,6.029,13.2971,4.59966,2469.9,2019-12-18T08:24:03Z
2019-12-18T06:26:36Z,42.805,6.029,13.2963,4.59967,2469.923,2019-12-18T08:27:07Z
2019-12-18T06:29:39Z,42.805,6.029,13.2963,4.59968,2469.96,2019-12-18T08:30:10Z
2019-12-18T06:32:43Z,42.805,6.029,13.2968,4.59968,2469.96,2019-12-18T08:33:13Z
2019-12-18T06:35:46Z,42.805,6.029,13.2964,4.59966,2469.96,2019-12-18T08:36:16Z
2019-12-18T06:38:49Z,42.805,6.029,13.2962,4.59968,2469.96,2019-12-18T08:39:19Z
2019-12-18T06:41:52Z,42.805,6.029,13.2965,4.59964,2469.947,2019-12-18T08:42:22Z
2019-12-18T06:44:55Z,42.805,6.029,13.2965,4.59967,2469.923,2019-12-18T08:45:26Z
2019-12-18T06:47:59Z,42.805,6.029,13.2963,4.59966,2469.984,2019-12-18T08:48:29Z
2019-12-18T06:51:02Z,42.805,6.029,13.2969,4.59970,2469.96,2019-12-18T08:51:32Z
2019-12-18T06:54:05Z,42.805,6.029,13.2964,4.59967,2469.947,2019-12-18T08:54:36Z
2019-12-18T06:57:09Z,42.805,6.029,13.2968,4.59967,2469.947,2019-12-18T08:57:39Z
2019-12-18T07:00:12Z,42.805,6.029,13.2970,4.59969,2469.947,2019-12-18T09:00:42Z
2019-12-18T07:03:15Z,42.805,6.029,13.2964,4.59967,2469.984,2019-12-18T09:03:45Z
2019-12-18T07:06:18Z,42.805,6.029,13.2964,4.59966,2469.96,2019-12-18T09:06:48Z
2019-12-18T07:09:21Z,42.805,6.029,13.2965,4.59967,2469.947,2019-12-18T09:09:52Z
2019-12-18T07:12:25Z,42.805,6.029,13.2966,4.59967,2469.97,2019-12-18T09:12:55Z
2019-12-18T07:15:28Z,42.805,6.029,13.2961,4.59968,2469.984,2019-12-18T09:15:58Z
2019-12-18T07:18:31Z,42.805,6.029,13.2961,4.59966,2469.947,2019-12-18T09:19:01Z
2019-12-18T07:21:34Z,42.805,6.029,13.2965,4.59965,2469.984,2019-12-18T09:22:05Z
2019-12-18T07:24:37Z,42.805,6.029,13.2966,4.59968,2469.923,2019-12-18T09:25:08Z
2019-12-18T07:27:41Z,42.805,6.029,13.2963,4.59964,2469.96,2019-12-18T09:28:11Z
2019-12-18T07:30:44Z,42.805,6.029,13.2964,4.59967,2469.993,2019-12-18T09:31:14Z
2019-12-18T07:33:47Z,42.805,6.029,13.2964,4.59966,2470.007,2019-12-18T09:34:17Z
2019-12-18T07:36:51Z,42.805,6.029,13.2968,4.59965,2469.947,2019-12-18T09:37:21Z
2019-12-18T07:39:54Z,42.805,6.029,13.2965,4.59966,2470.007,2019-12-18T09:40:24Z
2019-12-18T07:42:57Z,42.805,6.029,13.2961,4.59968,2469.993,2019-12-18T09:43:27Z
2019-12-18T07:46:00Z,42.805,6.029,13.2961,4.59966,2470.03,2019-12-18T09:46:31Z
2019-12-18T07:49:03Z,42.805,6.029,13.2968,4.59975,2470.007,2019-12-18T09:49:34Z
2019-12-18T07:52:07Z,42.805,6.029,13.2967,4.59970,2469.97,2019-12-18T09:52:37Z
2019-12-18T07:55:10Z,42.805,6.029,13.2967,4.59969,2470.017,2019-12-18T09:55:40Z
2019-12-18T07:58:13Z,42.805,6.029,13.2963,4.59967,2469.993,2019-12-18T09:58:43Z
2019-12-18T08:01:16Z,42.805,6.029,13.2964,4.59966,2470.017,2019-12-18T10:01:47Z
2019-12-18T08:04:19Z,42.805,6.029,13.2971,4.59969,2470.017,2019-12-18T10:04:50Z
2019-12-18T08:07:23Z,42.805,6.029,13.2962,4.59968,2469.993,2019-12-18T10:07:53Z
2019-12-18T08:10:26Z,42.805,6.029,13.2964,4.59966,2470.04,2019-12-18T10:10:56Z
2019-12-18T08:13:29Z,42.805,6.029,13.2964,4.59966,2470.017,2019-12-18T10:13:59Z
2019-12-18T08:16:32Z,42.805,6.029,13.2966,4.59967,2470.03,2019-12-18T10:17:03Z
2019-12-18T08:19:35Z,42.805,6.029,13.2970,4.59971,2470.017,2019-12-18T10:20:06Z
2019-12-18T08:22:39Z,42.805,6.029,13.2964,4.59978,2470.003,2019-12-18T10:23:09Z
2019-12-18T08:25:42Z,42.805,6.029,13.2967,4.59970,2470.017,2019-12-18T10:26:12Z
2019-12-18T08:28:45Z,42.805,6.029,13.2962,4.59966,2470.04,2019-12-18T10:29:15Z
2019-12-18T08:31:48Z,42.805,6.029,13.2964,4.59968,2470.04,2019-12-18T10:32:19Z
2019-12-18T08:34:52Z,42.805,6.029,13.2959,4.59968,2470.026,2019-12-18T10:35:22Z
2019-12-18T08:37:55Z,42.805,6.029,13.2964,4.59966,2470.053,2019-12-18T10:38:25Z
2019-12-18T08:40:58Z,42.805,6.029,13.2964,4.59973,2470.053,2019-12-18T10:41:28Z
2019-12-18T08:44:01Z,42.805,6.029,13.2964,4.59967,2470.077,2019-12-18T10:44:31Z
2019-12-18T08:47:04Z,42.805,6.029,13.2966,4.59969,2470.053,2019-12-18T10:47:35Z
2019-12-18T08:50:08Z,42.805,6.029,13.2961,4.59966,2470.04,2019-12-18T10:50:38Z
2019-12-18T08:53:11Z,42.805,6.029,13.2964,4.59968,2470.077,2019-12-18T10:53:41Z
2019-12-18T08:56:14Z,42.805,6.029,13.2961,4.59967,2470.063,2019-12-18T10:56:44Z
2019-12-18T08:59:17Z,42.805,6.029,13.2959,4.59969,2470.04,2019-12-18T10:59:48Z
2019-12-18T09:02:20Z,42.805,6.029,13.2963,4.59966,2470.063,2019-12-18T11:02:51Z
2019-12-18T09:05:24Z,42.805,6.029,13.2966,4.59968,2470.087,2019-12-18T11:05:54Z
2019-12-18T09:08:27Z,42.805,6.029,13.2968,4.59969,2470.087,2019-12-18T11:08:57Z
2019-12-18T09:11:30Z,42.805,6.029,13.2971,4.59967,2470.063,2019-12-18T11:12:00Z
2019-12-18T09:14:33Z,42.805,6.029,13.2964,4.59968,2470.1,2019-12-18T11:15:03Z
2019-12-18T09:17:36Z,42.805,6.029,13.2965,4.59968,2470.11,2019-12-18T11:18:07Z
2019-12-18T09:20:40Z,42.805,6.029,13.2963,4.59968,2470.077,2019-12-18T11:21:10Z
2019-12-18T09:23:43Z,42.805,6.029,13.2964,4.59968,2470.063,2019-12-18T11:24:13Z
2019-12-18T09:26:46Z,42.805,6.029,13.2975,4.59982,2470.063,2019-12-18T11:27:16Z
2019-12-18T09:29:49Z,42.805,6.029,13.2964,4.59972,2470.087,2019-12-18T11:30:20Z
2019-12-18T09:32:53Z,42.805,6.029,13.2966,4.59971,2470.077,2019-12-18T11:33:23Z
2019-12-18T09:35:56Z,42.805,6.029,13.2966,4.59973,2470.1,2019-12-18T11:36:26Z
2019-12-18T09:38:59Z,42.805,6.029,13.2962,4.59966,2470.087,2019-12-18T11:39:29Z
2019-12-18T09:42:02Z,42.805,6.029,13.2963,4.59966,2470.133,2019-12-18T11:42:33Z
2019-12-18T09:45:05Z,42.805,6.029,13.2967,4.59966,2470.1,2019-12-18T11:45:36Z
2019-12-18T09:48:09Z,42.805,6.029,13.2964,4.59966,2470.1,2019-12-18T11:48:39Z
2019-12-18T09:51:12Z,42.805,6.029,13.2964,4.59966,2470.1,2019-12-18T11:51:42Z
2019-12-18T09:54:15Z,42.805,6.029,13.2962,4.59967,2470.11,2019-12-18T11:54:45Z
2019-12-18T09:57:18Z,42.805,6.029,13.2966,4.59970,2470.1,2019-12-18T11:57:49Z
2019-12-18T10:00:21Z,42.805,6.029,13.2964,4.59966,2470.087,2019-12-18T12:00:52Z
2019-12-18T10:03:25Z,42.805,6.029,13.2965,4.59966,2470.1,2019-12-18T12:03:55Z
2019-12-18T10:06:28Z,42.805,6.029,13.2966,4.59973,2470.133,2019-12-18T12:06:58Z
2019-12-18T10:09:31Z,42.805,6.029,13.2961,4.59970,2470.1,2019-12-18T12:10:01Z
2019-12-18T10:12:34Z,42.805,6.029,13.2968,4.59968,2470.11,2019-12-18T12:13:04Z
2019-12-18T10:15:37Z,42.805,6.029,13.2967,4.59970,2470.1,2019-12-18T12:16:08Z
2019-12-18T10:18:41Z,42.805,6.029,13.2970,4.59984,2470.11,2019-12-18T12:19:11Z
2019-12-18T10:21:44Z,42.805,6.029,13.2966,4.59973,2470.133,2019-12-18T12:22:14Z
2019-12-18T10:24:47Z,42.805,6.029,13.2966,4.59972,2470.156,2019-12-18T12:25:17Z
2019-12-18T10:27:50Z,42.805,6.029,13.2965,4.59978,2470.133,2019-12-18T12:28:20Z
2019-12-18T10:30:53Z,42.805,6.029,13.2969,4.59974,2470.147,2019-12-18T12:31:24Z
2019-12-18T10:33:57Z,42.805,6.029,13.2968,4.59971,2470.133,2019-12-18T12:34:27Z
2019-12-18T10:37:00Z,42.805,6.029,13.2968,4.59973,2470.156,2019-12-18T12:37:30Z
2019-12-18T10:40:03Z,42.805,6.029,13.2966,4.59976,2470.18,2019-12-18T12:40:33Z
2019-12-18T10:43:06Z,42.805,6.029,13.2964,4.59971,2470.156,2019-12-18T12:43:36Z
2019-12-18T10:46:09Z,42.805,6.029,13.2968,4.59973,2470.171,2019-12-18T12:46:40Z
2019-12-18T10:49:13Z,42.805,6.029,13.2964,4.59969,2470.133,2019-12-18T12:49:43Z
2019-12-18T10:52:16Z,42.805,6.029,13.2973,4.59973,2470.124,2019-12-18T12:52:46Z
2019-12-18T10:55:19Z,42.805,6.029,13.2970,4.59976,2470.133,2019-12-18T12:55:49Z
2019-12-18T10:58:22Z,42.805,6.029,13.2964,4.59968,2470.171,2019-12-18T12:58:52Z
2019-12-18T11:01:25Z,42.805,6.029,13.2969,4.59977,2470.11,2019-12-18T13:01:56Z
2019-12-18T11:04:29Z,42.805,6.029,13.2968,4.59973,2470.171,2019-12-18T13:04:59Z
2019-12-18T11:07:32Z,42.805,6.029,13.2966,4.59970,2470.124,2019-12-18T13:08:02Z
2019-12-18T11:10:35Z,42.805,6.029,13.2964,4.59969,2470.143,2019-12-18T13:11:05Z
2019-12-18T11:13:38Z,42.805,6.029,13.2964,4.59968,2470.194,2019-12-18T13:14:08Z
2019-12-18T11:16:41Z,42.805,6.029,13.2970,4.59977,2470.11,2019-12-18T13:17:12Z
2019-12-18T11:19:45Z,42.805,6.029,13.2968,4.59972,2470.18,2019-12-18T13:20:15Z
2019-12-18T11:22:48Z,42.805,6.029,13.2964,4.59971,2470.147,2019-12-18T13:23:18Z
2019-12-18T11:25:51Z,42.805,6.029,13.2964,4.59969,2470.156,2019-12-18T13:26:21Z
2019-12-18T11:28:54Z,42.805,6.029,13.2968,4.59972,2470.171,2019-12-18T13:29:24Z
2019-12-18T11:31:57Z,42.805,6.029,13.2968,4.59976,2470.143,2019-12-18T13:32:28Z
2019-12-18T11:35:01Z,42.805,6.029,13.2967,4.59972,2470.156,2019-12-18T13:35:31Z
2019-12-18T11:38:04Z,42.805,6.029,13.2967,4.59973,2470.133,2019-12-18T13:38:34Z
2019-12-18T11:41:07Z,42.805,6.029,13.2967,4.59973,2470.156,2019-12-18T13:41:37Z
2019-12-18T11:44:10Z,42.805,6.029,13.2968,4.59983,2470.171,2019-12-18T13:44:41Z
2019-12-18T11:47:14Z,42.805,6.029,13.2968,4.59975,2470.133,2019-12-18T13:47:44Z
2019-12-18T11:50:17Z,42.805,6.029,13.2968,4.59976,2470.133,2019-12-18T13:50:47Z
2019-12-18T11:53:20Z,42.805,6.029,13.2969,4.59971,2470.147,2019-12-18T13:53:50Z
2019-12-18T11:56:23Z,42.805,6.029,13.2964,4.59979,2470.133,2019-12-18T13:56:54Z
2019-12-18T11:59:27Z,42.805,6.029,13.2966,4.59971,2470.147,2019-12-18T13:59:57Z
2019-12-18T12:02:30Z,42.805,6.029,13.2968,4.59976,2470.156,2019-12-18T14:03:00Z
2019-12-18T12:05:33Z,42.805,6.029,13.2968,4.59971,2470.124,2019-12-18T14:06:03Z
2019-12-18T12:08:36Z,42.805,6.029,13.2968,4.59978,2470.156,2019-12-18T14:09:07Z
2019-12-18T12:11:39Z,42.805,6.029,13.2962,4.59970,2470.171,2019-12-18T14:12:10Z
2019-12-18T12:14:43Z,42.805,6.029,13.2967,4.59969,2470.133,2019-12-18T14:15:13Z
2019-12-18T12:17:46Z,42.805,6.029,13.2967,4.59972,2470.156,2019-12-18T14:18:16Z
2019-12-18T12:20:49Z,42.805,6.029,13.2964,4.59968,2470.133,2019-12-18T14:21:19Z
2019-12-18T12:23:52Z,42.805,6.029,13.2964,4.59966,2470.194,2019-12-18T14:24:23Z
2019-12-18T12:26:56Z,42.805,6.029,13.2964,4.59978,2470.156,2019-12-18T14:27:26Z
2019-12-18T12:29:59Z,42.805,6.029,13.2974,4.59986,2470.133,2019-12-18T14:30:29Z
2019-12-18T12:33:02Z,42.805,6.029,13.2969,4.59987,2470.133,2019-12-18T14:33:32Z
2019-12-18T12:36:05Z,42.805,6.029,13.2973,4.59980,2470.171,2019-12-18T14:36:36Z
2019-12-18T12:39:08Z,42.805,6.029,13.2964,4.59973,2470.133,2019-12-18T14:39:39Z
2019-12-18T12:42:12Z,42.805,6.029,13.2967,4.59973,2470.147,2019-12-18T14:42:42Z
2019-12-18T12:45:15Z,42.805,6.029,13.2964,4.59971,2470.11,2019-12-18T14:45:45Z
2019-12-18T12:48:18Z,42.805,6.029,13.2963,4.59971,2470.133,2019-12-18T14:48:48Z
2019-12-18T12:51:21Z,42.805,6.029,13.2967,4.59976,2470.156,2019-12-18T14:51:52Z
2019-12-18T12:54:25Z,42.805,6.029,13.2971,4.59986,2470.124,2019-12-18T14:54:55Z
2019-12-18T12:57:28Z,42.805,6.029,13.2967,4.59974,2470.147,2019-12-18T14:57:58Z
2019-12-18T13:00:31Z,42.805,6.029,13.2979,4.59985,2470.171,2019-12-18T15:01:01Z
2019-12-18T13:03:34Z,42.805,6.029,13.2967,4.59981,2470.11,2019-12-18T15:04:05Z
2019-12-18T13:06:37Z,42.805,6.029,13.2971,4.59986,2470.11,2019-12-18T15:07:08Z
2019-12-18T13:09:41Z,42.805,6.029,13.2971,4.59986,2470.087,2019-12-18T15:10:11Z
2019-12-18T13:12:44Z,42.805,6.029,13.2968,4.59988,2470.096,2019-12-18T15:13:14Z
2019-12-18T13:15:47Z,42.805,6.029,13.2970,4.59970,2470.147,2019-12-18T15:16:17Z
2019-12-18T13:18:50Z,42.805,6.029,13.2967,4.59969,2470.147,2019-12-18T15:19:21Z
2019-12-18T13:21:53Z,42.805,6.029,13.2974,4.59985,2470.11,2019-12-18T15:22:24Z
2019-12-18T13:24:57Z,42.805,6.029,13.2974,4.59987,2470.133,2019-12-18T15:25:27Z
2019-12-18T13:28:00Z,42.805,6.029,13.2968,4.59972,2470.133,2019-12-18T15:28:30Z
2019-12-18T13:31:03Z,42.805,6.029,13.2965,4.59969,2470.133,2019-12-18T15:31:34Z
2019-12-18T13:34:06Z,42.805,6.029,13.2965,4.59971,2470.133,2019-12-18T15:34:37Z
2019-12-18T13:37:10Z,42.805,6.029,13.2964,4.59973,2470.147,2019-12-18T15:37:40Z
2019-12-18T13:40:13Z,42.805,6.029,13.2964,4.59975,2470.147,2019-12-18T15:40:43Z
2019-12-18T13:43:16Z,42.805,6.029,13.2964,4.59973,2470.1,2019-12-18T15:43:46Z
2019-12-18T13:46:19Z,42.805,6.029,13.2970,4.59976,2470.119,2019-12-18T15:46:50Z
2019-12-18T13:49:23Z,42.805,6.029,13.2971,4.59998,2470.11,2019-12-18T15:49:53Z
2019-12-18T13:52:26Z,42.805,6.029,13.2968,4.59983,2470.11,2019-12-18T15:52:56Z
2019-12-18T13:55:29Z,42.805,6.029,13.2971,4.59985,2470.133,2019-12-18T15:55:59Z
2019-12-18T13:58:32Z,42.805,6.029,13.2969,4.59979,2470.133,2019-12-18T15:59:02Z
2019-12-18T14:01:35Z,42.805,6.029,13.2969,4.59987,2470.11,2019-12-18T16:02:06Z
2019-12-18T14:04:38Z,42.805,6.029,13.2966,4.59987,2470.11,2019-12-18T16:05:09Z
2019-12-18T14:07:42Z,42.805,6.029,13.2967,4.59972,2470.11,2019-12-18T16:08:12Z
2019-12-18T14:10:45Z,42.805,6.029,13.2971,4.59987,2470.124,2019-12-18T16:11:15Z
2019-12-18T14:13:48Z,42.805,6.029,13.2973,4.59978,2470.096,2019-12-18T16:14:18Z
2019-12-18T14:16:51Z,42.805,6.029,13.2971,4.59978,2470.156,2019-12-18T16:17:22Z
2019-12-18T14:19:55Z,42.805,6.029,13.2969,4.59986,2470.124,2019-12-18T16:20:25Z
2019-12-18T14:22:58Z,42.805,6.029,13.2967,4.59988,2470.156,2019-12-18T16:23:28Z
2019-12-18T14:26:01Z,42.805,6.029,13.2968,4.59991,2470.124,2019-12-18T16:26:31Z
2019-12-18T14:29:04Z,42.805,6.029,13.2964,4.59969,2470.124,2019-12-18T16:29:35Z
2019-12-18T14:32:07Z,42.805,6.029,13.2967,4.59973,2470.11,2019-12-18T16:32:38Z
2019-12-18T14:35:11Z,42.805,6.029,13.2971,4.59981,2470.1,2019-12-18T16:35:41Z
2019-12-18T14:38:14Z,42.805,6.029,13.2972,4.59973,2470.133,2019-12-18T16:38:44Z
2019-12-18T14:41:17Z,42.805,6.029,13.2962,4.59983,2470.11,2019-12-18T16:41:47Z
2019-12-18T14:44:20Z,42.805,6.029,13.2971,4.59977,2470.087,2019-12-18T16:44:51Z
2019-12-18T14:47:23Z,42.805,6.029,13.2968,4.59973,2470.124,2019-12-18T16:47:54Z
2019-12-18T14:50:27Z,42.805,6.029,13.2968,4.59973,2470.073,2019-12-18T16:50:57Z
2019-12-18T14:53:30Z,42.805,6.029,13.2966,4.59973,2470.087,2019-12-18T16:54:00Z
2019-12-18T14:56:33Z,42.805,6.029,13.2967,4.59972,2470.087,2019-12-18T16:57:04Z
2019-12-18T14:59:37Z,42.805,6.029,13.2966,4.59973,2470.096,2019-12-18T17:00:07Z
2019-12-18T15:02:40Z,42.805,6.029,13.2967,4.59976,2470.063,2019-12-18T17:03:10Z